QZS-3 (MICHIBIKI-3) (42917 NORAD) Tracking and Keplerian Element Data

This shows tracking and keplerian element data for the satellite.

Feedback or suggestion? Click here.




ElementValue
Catalog42917
NameQZS-3 (MICHIBIKI-3)
Epoch Orbit651
Epoch Day146.00657633
Epoch Year2019
RAAN133.5868
Inclination0.0746
Eccentricity0.0001651
Argument of Perigee315.0177
Mean Anonmoly284.0994
Mean Motion1.00270067
Decay Rate-3.51E-06
L11 42917U 17048A 19146.00657633 -.00000351 00000-0 00000+0 0 9993
L22 42917 0.0746 133.5868 0001651 315.0177 284.0994 1.00270067 6514

Live tracking and technical data element details for QZS-3 (MICHIBIKI-3) (NORAD 42917). QZS-3 (MICHIBIKI-3) can be tracked NOW for your location showing map with azimuth and elevation plus other details from your city location.

Track the satellite on the map from your city or location and see movement details for azimuth, elevation, latitude, longitude, range, height, and movement on the map or in text.







IsCatalogInMostPopularTable: catalog: 42917, numindb: 236
Update: records affected: 1



GetName: 42917 QZS-3 (MICHIBIKI-3)

Hit Count: updated at: Mon, 27 May 2019 03:41:32 GMT